GOMX-4A (43197 NORAD) Tracking and Keplerian Element Data

This shows tracking and keplerian element data for the satellite.

Feedback or suggestion? Click here.




ElementValue
Catalog43197
NameGOMX-4A
Epoch Orbit6677
Epoch Day106.81121132
Epoch Year2019
RAAN235.3038
Inclination97.3807
Eccentricity0.0019674
Argument of Perigee163.9968
Mean Anonmoly341.481
Mean Motion15.23967599
Decay Rate7.18E-06
L11 43197U 18015F 19106.81121132 .00000718 00000-0 32465-4 0 9995
L22 43197 97.3807 235.3038 0019674 163.9968 341.4810 15.23967599 66776

Live tracking and technical data element details for GOMX-4A (NORAD 43197). GOMX-4A can be tracked NOW for your location showing map with azimuth and elevation plus other details from your city location.

Track the satellite on the map from your city or location and see movement details for azimuth, elevation, latitude, longitude, range, height, and movement on the map or in text.







IsCatalogInMostPopularTable: catalog: 43197, numindb: 197
Update: records affected: 1



GetName: 43197 GOMX-4A

Hit Count: updated at: Sat, 20 Apr 2019 00:36:34 GMT